Regional Weather Roundup
Issued by NWS

Home | Current Version | Previous Version | Text Only | Print | Product List | Glossary Off
Versions: 1 2 3 4 5 6 7 8 9 10 11 12 13 14 15 16 17 18 19 20 21 22 23 24 25 26 27 28 29 30 31 32 33 34 35 36 37 38 39 40 41 42 43 44 45 46 47 48 49 50

000
ASUS43 KOAX 260102
RWRNE

WEATHER ROUNDUP FOR NEBRASKA
NATIONAL WEATHER SERVICE OMAHA NE
700 PM CST SAT FEB 25 2017

NOTES: SATELLITE DATA IS BEING USED TO AUGMENT CLOUD COVER ABOVE
       12000 FEET.
       "FAIR" INDICATES FEW OR NO CLOUDS BELOW 12,000 FEET WITH NO
       SIGNIFICANT WEATHER AND/OR OBSTRUCTIONS TO VISIBILITY.

  * THESE STATIONS DO NOT REPORT WEATHER SUCH AS RAIN...SNOW OR FOG.

NEZ001>004-019>022-054>056-260200-
NEBRASKA PANHANDLE

CITY           SKY/WX    TMP DP  RH WIND       PRES   REMARKS
SCOTTSBLUFF    CLOUDY    27  12  53 W24G32    29.78F WCI  12
ALLIANCE       CLEAR     16   8  71 SW14      29.76F WCI   2
CHADRON        CLEAR     17   7  64 SW12      29.76F WCI   4
KIMBALL        CLOUDY    26  16  65 W14       29.80S WCI  15
SIDNEY         CLOUDY    20  13  74 W6        29.81F WCI  12
$$

NEZ057>060-069>072-079>082-260200-
SOUTHWEST NEBRASKA

CITY           SKY/WX    TMP DP  RH WIND       PRES   REMARKS
NORTH PLATTE   CLEAR     24  14  65 W8        29.86S WCI  15
IMPERIAL       CLEAR     30  15  53 NW3       29.86F
LEXINGTON      CLEAR     31  21  66 CALM      29.88F
MCCOOK         CLEAR     30  12  47 NW8       29.90F WCI  22
OGALLALA       CLOUDY    28  19  68 W6        29.84F WCI  21
$$

NEZ005>010-023>029-035>040-094-260200-
NORTH CENTRAL NEBRASKA

CITY           SKY/WX    TMP DP  RH WIND       PRES   REMARKS
VALENTINE      CLOUDY    24  18  77 SW9       29.79F WCI  14
AINSWORTH      CLOUDY    23  19  84 SW9       29.80F WCI  13
BROKEN BOW     CLOUDY    27  20  75 SW3       29.85S
O`NEILL        CLEAR     23  18  79 SW7       29.83S WCI  15
ORD            CLOUDY    27  19  72 SW7       29.85F WCI  19
THEDFORD       CLOUDY    24  19  81 CALM      29.82F
$$

NEZ041-046>049-061>064-073>077-083>087-260200-
SOUTH CENTRAL NEBRASKA

CITY           SKY/WX    TMP DP  RH WIND       PRES   REMARKS
GRAND ISLAND   CLOUDY    33  24  69 W9        29.89F WCI  25
AURORA         PTCLDY    32  27  82 SW5       29.89S WCI  27
HASTINGS       PTCLDY    34  23  64 W7        29.90F WCI  28
HEBRON         CLOUDY    39  28  63 SW13G20   29.94R WCI  31
HOLDREGE       CLEAR     30  19  63 W6        29.89F WCI  24
KEARNEY *      CLOUDY    32  19  59 W6        29.90S WCI  26
YORK           CLEAR     32  27  80 SW8       29.90F WCI  25
$$

NEZ011>018-030>034-042>045-260200-
NORTHEAST NEBRASKA

CITY           SKY/WX    TMP DP  RH WIND       PRES   REMARKS
NORFOLK        CLEAR     27  21  78 S10       29.87F WCI  17
ALBION         PTCLDY    29  22  73 CALM      29.87F
BLAIR          CLEAR     30  20  66 S9        29.93F WCI  22
FREMONT        PTCLDY    29  22  74 SE3       29.93F
TEKAMAH        PTCLDY    23  17  78 S9        29.94F WCI  13
WAYNE          CLEAR     23  19  83 S10       29.89F WCI  12
$$

NEZ050>053-065>068-078-088>093-260200-
SOUTHEAST NEBRASKA

CITY           SKY/WX    TMP DP  RH WIND       PRES   REMARKS
LINCOLN        PTCLDY    33  23  66 S7        29.94F WCI  27
OMAHA EPPLEY   PTCLDY    33  20  58 S12       29.96F WCI  24
BEATRICE       CLOUDY    38  20  49 S8        29.95S WCI  32
FALLS CITY     CLOUDY    36  18  48 S7        30.00F WCI  30
NEBRASKA CITY  MOCLDY    32  20  60 S8        29.97F WCI  25
PLATTSMOUTH    MOCLDY    32  19  59 S7        29.96F WCI  26
$$

NEZ044-045-051>053-067-260200-
OMAHA AREA

CITY           SKY/WX    TMP DP  RH WIND       PRES   REMARKS
OMAHA EPPLEY   PTCLDY    33  20  58 S12       29.96F WCI  24
BLAIR          CLEAR     30  20  66 S9        29.93F WCI  22
FREMONT        PTCLDY    29  22  74 SE3       29.93F
MILLARD        CLOUDY    34  24  65 SE5       29.95F WCI  30
OFFUTT AFB     CLOUDY    33  21  60 S8        29.96F WCI  27
PLATTSMOUTH    MOCLDY    32  19  59 S7        29.96F WCI  26
WAHOO          FAIR      28  21  75 S7        29.93F WCI  20
$$



USA.gov is the U.S. government's official web portal to all federal, state and local government web resources and services.